Time,TemperatureF,DewpointF,PressureIn,WindDirection,WindDirectionDegrees,WindSpeedMPH,WindSpeedGustMPH,Humidity,HourlyPrecipIn,Conditions,Clouds,dailyrainin,SoftwareType,DateUTC
2013-02-17 00:10:00,46.7,37.0,30.11,ENE,62,0.0,1.0,69,0.00,,,0.00,weatherlink.com 1.10,2013-02-17 08:10:00,
2013-02-17 00:25:00,47.1,37.0,30.11,NNE,15,3.0,3.0,68,0.00,,,0.00,weatherlink.com 1.10,2013-02-17 08:25:00,
2013-02-17 00:40:00,47.3,37.0,30.11,East,83,0.0,1.0,68,0.00,,,0.00,weatherlink.com 1.10,2013-02-17 08:40:00,
2013-02-17 00:55:00,46.5,37.0,30.10,East,83,0.0,0.0,69,0.00,,,0.00,weatherlink.com 1.10,2013-02-17 08:55:00,
2013-02-17 01:10:00,45.7,36.0,30.10,North,1,0.0,1.0,70,0.00,,,0.00,weatherlink.com 1.10,2013-02-17 09:10:00,
2013-02-17 01:25:00,45.9,36.0,30.10,ENE,72,0.0,1.0,69,0.00,,,0.00,weatherlink.com 1.10,2013-02-17 09:25:00,
2013-02-17 01:40:00,46.3,36.0,30.10,ENE,75,0.0,1.0,68,0.00,,,0.00,weatherlink.com 1.10,2013-02-17 09:40:00,
2013-02-17 01:55:00,46.8,36.0,30.09,East,97,0.0,1.0,66,0.00,,,0.00,weatherlink.com 1.10,2013-02-17 09:55:00,
2013-02-17 02:10:00,46.8,36.0,30.09,East,98,0.0,1.0,66,0.00,,,0.00,weatherlink.com 1.10,2013-02-17 10:10:00,
2013-02-17 02:25:00,45.7,35.0,30.09,WNW,288,0.0,2.0,67,0.00,,,0.00,weatherlink.com 1.10,2013-02-17 10:25:00,
2013-02-17 02:40:00,45.2,35.0,30.08,ENE,60,1.0,1.0,67,0.00,,,0.00,weatherlink.com 1.10,2013-02-17 10:40:00,
2013-02-17 02:55:00,44.9,34.0,30.08,ENE,70,0.0,0.0,67,0.00,,,0.00,weatherlink.com 1.10,2013-02-17 10:55:00,
2013-02-17 03:10:00,44.0,34.0,30.07,ESE,110,0.0,1.0,69,0.00,,,0.00,weatherlink.com 1.10,2013-02-17 11:10:00,
2013-02-17 03:25:00,44.4,34.0,30.07,East,100,0.0,1.0,68,0.00,,,0.00,weatherlink.com 1.10,2013-02-17 11:25:00,
2013-02-17 03:40:00,44.1,34.0,30.07,NNE,13,0.0,2.0,68,0.00,,,0.00,weatherlink.com 1.10,2013-02-17 11:40:00,
2013-02-17 03:55:00,44.3,34.0,30.07,ENE,77,0.0,1.0,67,0.00,,,0.00,weatherlink.com 1.10,2013-02-17 11:55:00,
2013-02-17 04:10:00,43.9,34.0,30.07,ESE,116,0.0,1.0,68,0.00,,,0.00,weatherlink.com 1.10,2013-02-17 12:10:00,
2013-02-17 04:25:00,43.5,34.0,30.07,ESE,104,0.0,1.0,68,0.00,,,0.00,weatherlink.com 1.10,2013-02-17 12:25:00,
2013-02-17 04:40:00,43.1,33.0,30.07,ESE,105,0.0,1.0,68,0.00,,,0.00,weatherlink.com 1.10,2013-02-17 12:40:00,
2013-02-17 04:55:00,43.2,33.0,30.07,ESE,103,0.0,0.0,68,0.00,,,0.00,weatherlink.com 1.10,2013-02-17 12:55:00,
2013-02-17 05:10:00,43.6,32.0,30.06,East,99,1.0,1.0,65,0.00,,,0.00,weatherlink.com 1.10,2013-02-17 13:10:00,
2013-02-17 05:25:00,43.7,32.0,30.06,East,84,0.0,1.0,64,0.00,,,0.00,weatherlink.com 1.10,2013-02-17 13:25:00,
2013-02-17 05:40:00,43.8,32.0,30.06,ESE,105,0.0,2.0,63,0.00,,,0.00,weatherlink.com 1.10,2013-02-17 13:40:00,
2013-02-17 05:55:00,43.9,31.0,30.06,NE,48,0.0,1.0,62,0.00,,,0.00,weatherlink.com 1.10,2013-02-17 13:55:00,
2013-02-17 06:10:00,43.7,31.0,30.06,ESE,110,0.0,2.0,61,0.00,,,0.00,weatherlink.com 1.10,2013-02-17 14:10:00,
2013-02-17 06:25:00,43.6,31.0,30.06,SE,139,1.0,2.0,61,0.00,,,0.00,weatherlink.com 1.10,2013-02-17 14:25:00,
2013-02-17 06:40:00,43.1,30.0,30.07,NNE,27,0.0,2.0,61,0.00,,,0.00,weatherlink.com 1.10,2013-02-17 14:40:00,
2013-02-17 06:55:00,42.6,30.0,30.08,East,84,0.0,3.0,62,0.00,,,0.00,weatherlink.com 1.10,2013-02-17 14:55:00,
2013-02-17 07:10:00,42.2,30.0,30.08,West,269,0.0,1.0,62,0.00,,,0.00,weatherlink.com 1.10,2013-02-17 15:10:00,
2013-02-17 07:25:00,42.5,30.0,30.08,ESE,110,0.0,2.0,62,0.00,,,0.00,weatherlink.com 1.10,2013-02-17 15:25:00,
2013-02-17 07:40:00,42.5,31.0,30.09,SE,131,0.0,1.0,63,0.00,,,0.00,weatherlink.com 1.10,2013-02-17 15:40:00,
2013-02-17 07:55:00,43.2,30.0,30.09,NE,41,0.0,1.0,60,0.00,,,0.00,weatherlink.com 1.10,2013-02-17 15:55:00,
2013-02-17 08:10:00,46.0,31.0,30.08,NE,47,0.0,1.0,56,0.00,,,0.00,weatherlink.com 1.10,2013-02-17 16:10:00,
2013-02-17 08:25:00,46.6,34.0,30.08,ENE,77,0.0,0.0,61,0.00,,,0.00,weatherlink.com 1.10,2013-02-17 16:25:00,
2013-02-17 08:40:00,47.2,33.0,30.08,East,101,0.0,1.0,59,0.00,,,0.00,weatherlink.com 1.10,2013-02-17 16:40:00,
2013-02-17 08:55:00,48.3,33.0,30.09,ESE,103,0.0,1.0,57,0.00,,,0.00,weatherlink.com 1.10,2013-02-17 16:55:00,
2013-02-17 09:11:00,49.5,32.0,30.09,WSW,246,0.0,1.0,52,0.00,,,0.00,weatherlink.com 1.10,2013-02-17 17:11:00,
2013-02-17 09:26:00,51.3,32.0,30.09,East,92,0.0,1.0,48,0.00,,,0.00,weatherlink.com 1.10,2013-02-17 17:26:00,
2013-02-17 09:41:00,53.4,33.0,30.09,East,82,0.0,2.0,47,0.00,,,0.00,weatherlink.com 1.10,2013-02-17 17:41:00,
2013-02-17 09:56:00,54.3,36.0,30.09,ENE,75,1.0,1.0,51,0.00,,,0.00,weatherlink.com 1.10,2013-02-17 17:56:00,
2013-02-17 10:11:00,54.6,37.0,30.09,ENE,77,1.0,1.0,52,0.00,,,0.00,weatherlink.com 1.10,2013-02-17 18:11:00,
2013-02-17 10:26:00,55.0,36.0,30.09,East,94,1.0,2.0,49,0.00,,,0.00,weatherlink.com 1.10,2013-02-17 18:26:00,
2013-02-17 10:41:00,56.0,35.0,30.09,East,99,0.0,1.0,46,0.00,,,0.00,weatherlink.com 1.10,2013-02-17 18:41:00,
2013-02-17 10:56:00,57.9,36.0,30.09,East,98,1.0,1.0,44,0.00,,,0.00,weatherlink.com 1.10,2013-02-17 18:56:00,
2013-02-17 11:11:00,59.4,37.0,30.09,SE,131,0.0,1.0,44,0.00,,,0.00,weatherlink.com 1.10,2013-02-17 19:11:00,
2013-02-17 11:26:00,60.5,37.0,30.08,SE,143,0.0,2.0,42,0.00,,,0.00,weatherlink.com 1.10,2013-02-17 19:26:00,
2013-02-17 11:41:00,61.1,38.0,30.08,East,98,0.0,2.0,42,0.00,,,0.00,weatherlink.com 1.10,2013-02-17 19:41:00,
2013-02-17 11:56:00,61.7,37.0,30.07,South,169,0.0,2.0,40,0.00,,,0.00,weatherlink.com 1.10,2013-02-17 19:56:00,
2013-02-17 12:11:00,61.9,38.0,30.07,NE,34,0.0,2.0,41,0.00,,,0.00,weatherlink.com 1.10,2013-02-17 20:11:00,
2013-02-17 12:26:00,61.8,38.0,30.06,NE,41,0.0,3.0,41,0.00,,,0.00,weatherlink.com 1.10,2013-02-17 20:26:00,
2013-02-17 12:41:00,61.9,38.0,30.05,ESE,107,0.0,4.0,41,0.00,,,0.00,weatherlink.com 1.10,2013-02-17 20:41:00,
2013-02-17 12:56:00,62.3,39.0,30.05,West,259,0.0,4.0,43,0.00,,,0.00,weatherlink.com 1.10,2013-02-17 20:56:00,
2013-02-17 13:11:00,63.2,41.0,30.05,NE,55,1.0,3.0,44,0.00,,,0.00,weatherlink.com 1.10,2013-02-17 21:11:00,
2013-02-17 13:26:00,63.4,40.0,30.04,West,273,1.0,3.0,43,0.00,,,0.00,weatherlink.com 1.10,2013-02-17 21:26:00,
2013-02-17 13:41:00,64.3,41.0,30.04,NE,39,0.0,3.0,43,0.00,,,0.00,weatherlink.com 1.10,2013-02-17 21:41:00,
2013-02-17 13:56:00,63.6,41.0,30.03,WSW,238,4.0,4.0,43,0.00,,,0.00,weatherlink.com 1.10,2013-02-17 21:56:00,
2013-02-17 14:11:00,62.9,40.0,30.03,West,273,1.0,4.0,44,0.00,,,0.00,weatherlink.com 1.10,2013-02-17 22:11:00,
2013-02-17 14:26:00,63.1,41.0,30.03,West,276,0.0,4.0,45,0.00,,,0.00,weatherlink.com 1.10,2013-02-17 22:26:00,
2013-02-17 14:41:00,62.7,42.0,30.03,SSW,211,1.0,4.0,47,0.00,,,0.00,weatherlink.com 1.10,2013-02-17 22:41:00,
2013-02-17 14:56:00,62.3,41.0,30.03,West,264,2.0,4.0,46,0.00,,,0.00,weatherlink.com 1.10,2013-02-17 22:56:00,
2013-02-17 15:11:00,63.6,42.0,30.03,WNW,283,2.0,3.0,45,0.00,,,0.00,weatherlink.com 1.10,2013-02-17 23:11:00,
2013-02-17 15:26:00,62.2,42.0,30.03,SW,234,3.0,5.0,47,0.00,,,0.00,weatherlink.com 1.10,2013-02-17 23:26:00,
2013-02-17 15:41:00,61.4,41.0,30.02,WSW,253,3.0,3.0,48,0.00,,,0.00,weatherlink.com 1.10,2013-02-17 23:41:00,
2013-02-17 15:57:00,61.0,41.0,30.03,SW,236,4.0,4.0,49,0.00,,,0.00,weatherlink.com 1.10,2013-02-17 23:57:00,
2013-02-17 16:12:00,61.1,42.0,30.02,West,278,2.0,3.0,49,0.00,,,0.00,weatherlink.com 1.10,2013-02-18 00:12:00,
2013-02-17 16:27:00,60.8,42.0,30.03,West,266,1.0,3.0,50,0.00,,,0.00,weatherlink.com 1.10,2013-02-18 00:27:00,
2013-02-17 16:42:00,59.3,41.0,30.03,WSW,257,2.0,5.0,52,0.00,,,0.00,weatherlink.com 1.10,2013-02-18 00:42:00,
2013-02-17 16:57:00,58.7,42.0,30.03,WSW,251,1.0,3.0,54,0.00,,,0.00,weatherlink.com 1.10,2013-02-18 00:57:00,
2013-02-17 17:12:00,57.7,41.0,30.02,WSW,243,2.0,2.0,55,0.00,,,0.00,weatherlink.com 1.10,2013-02-18 01:12:00,
2013-02-17 17:27:00,55.6,41.0,30.02,WSW,239,1.0,2.0,58,0.00,,,0.00,weatherlink.com 1.10,2013-02-18 01:27:00,
2013-02-17 17:42:00,54.2,40.0,30.02,WSW,239,1.0,2.0,60,0.00,,,0.00,weatherlink.com 1.10,2013-02-18 01:42:00,
2013-02-17 17:57:00,53.7,40.0,30.02,SW,233,0.0,1.0,61,0.00,,,0.00,weatherlink.com 1.10,2013-02-18 01:57:00,
2013-02-17 18:12:00,53.3,40.0,30.03,SW,227,0.0,1.0,62,0.00,,,0.00,weatherlink.com 1.10,2013-02-18 02:12:00,
2013-02-17 18:27:00,53.0,40.0,30.03,SW,226,0.0,0.0,62,0.00,,,0.00,weatherlink.com 1.10,2013-02-18 02:27:00,
2013-02-17 18:42:00,52.5,40.0,30.03,SW,231,0.0,0.0,63,0.00,,,0.00,weatherlink.com 1.10,2013-02-18 02:42:00,
2013-02-17 18:57:00,51.2,40.0,30.03,SW,231,0.0,0.0,65,0.00,,,0.00,weatherlink.com 1.10,2013-02-18 02:57:00,
2013-02-17 19:12:00,49.6,39.0,30.03,SW,231,0.0,0.0,68,0.00,,,0.00,weatherlink.com 1.10,2013-02-18 03:12:00,
2013-02-17 19:27:00,49.6,40.0,30.03,SW,231,0.0,0.0,69,0.00,,,0.00,weatherlink.com 1.10,2013-02-18 03:27:00,
2013-02-17 19:42:00,48.7,40.0,30.04,SW,231,0.0,0.0,71,0.00,,,0.00,weatherlink.com 1.10,2013-02-18 03:42:00,
2013-02-17 19:57:00,47.6,39.0,30.04,SW,231,0.0,0.0,73,0.00,,,0.00,weatherlink.com 1.10,2013-02-18 03:57:00,
2013-02-17 20:12:00,47.2,40.0,30.04,SW,231,0.0,0.0,76,0.00,,,0.00,weatherlink.com 1.10,2013-02-18 04:12:00,
2013-02-17 20:27:00,47.0,40.0,30.05,SW,231,0.0,0.0,76,0.00,,,0.00,weatherlink.com 1.10,2013-02-18 04:27:00,
2013-02-17 20:42:00,46.1,40.0,30.05,SW,231,0.0,0.0,78,0.00,,,0.00,weatherlink.com 1.10,2013-02-18 04:42:00,
2013-02-17 20:57:00,45.5,39.0,30.05,SW,231,0.0,0.0,79,0.00,,,0.00,weatherlink.com 1.10,2013-02-18 04:57:00,
2013-02-17 21:12:00,44.8,39.0,30.05,SW,231,0.0,0.0,79,0.00,,,0.00,weatherlink.com 1.10,2013-02-18 05:12:00,
2013-02-17 21:27:00,45.4,39.0,30.05,SW,231,0.0,0.0,78,0.00,,,0.00,weatherlink.com 1.10,2013-02-18 05:27:00,
2013-02-17 21:42:00,46.1,39.0,30.06,East,88,0.0,1.0,76,0.00,,,0.00,weatherlink.com 1.10,2013-02-18 05:42:00,
2013-02-17 21:57:00,46.8,39.0,30.05,ESE,105,0.0,1.0,73,0.00,,,0.00,weatherlink.com 1.10,2013-02-18 05:57:00,
2013-02-17 22:12:00,48.0,38.0,30.06,ENE,77,0.0,2.0,69,0.00,,,0.00,weatherlink.com 1.10,2013-02-18 06:12:00,
2013-02-17 22:27:00,46.7,38.0,30.06,ESE,108,1.0,2.0,71,0.00,,,0.00,weatherlink.com 1.10,2013-02-18 06:27:00,
2013-02-17 22:42:00,46.2,37.0,30.06,East,84,0.0,1.0,70,0.00,,,0.00,weatherlink.com 1.10,2013-02-18 06:42:00,
2013-02-17 22:57:00,45.1,37.0,30.06,East,85,0.0,0.0,73,0.00,,,0.00,weatherlink.com 1.10,2013-02-18 06:57:00,
2013-02-17 23:13:00,44.0,37.0,30.06,WNW,301,0.0,0.0,75,0.00,,,0.00,weatherlink.com 1.10,2013-02-18 07:13:00,
2013-02-17 23:27:00,44.5,36.0,30.05,NE,39,0.0,0.0,73,0.00,,,0.00,weatherlink.com 1.10,2013-02-18 07:27:00,
2013-02-17 23:42:00,43.7,36.0,30.05,NE,38,0.0,0.0,74,0.00,,,0.00,weatherlink.com 1.10,2013-02-18 07:42:00,
2013-02-17 23:57:00,43.4,36.0,30.05,NE,38,0.0,0.0,75,0.00,,,0.00,weatherlink.com 1.10,2013-02-18 07:57:00,